• Join FlightAware (Why Join?)
  • Login
  • US Flag 
10:24AM EST


 

Airport Tracker/Info


-or-


 

Live Flight TrackerFlight Track Log ✈ EJA831 ✈ 23-Jul-2013 ✈ KSTL - KBHM

Flight Track Log - Related Links

Times and Time Zones

All times are in EDT time to prevent confusion due to time zone crossing. See the EJA831 flight status page for this flight to view local times or setup timezone preferences in your user account.

Time Position Orientation Groundspeed Altitude Reporting Facility
EDT Latitude Longitude Course Direction KTS MPH feet Rate Location/Type
09:15AM 38.7833 -90.4167 132° Southeast 198 228 4,600  Level Gateway (St. Louis) TRACON
09:16AM 38.7806 -90.4853 267° West 224 258 6,800 2,679 Climbing Kansas City Center
09:17AM 38.7258 -90.5325 214° Southwest 280 322 9,600 2,710 Climbing Kansas City Center
09:18AM 38.6525 -90.4842 153° Southeast 328 377 12,400 2,927 Climbing Kansas City Center
09:19AM 38.5908 -90.3722 125° Southeast 341 392 15,600 3,024 Climbing Kansas City Center
09:20AM 38.6519 -90.1861 132° Southeast  Level FlightAware Approximate
09:20AM 38.5244 -90.2814 133° Southeast 351 404 18,600  Level Kansas City Center
09:21AM 38.4419 -90.2192 149° Southeast 343 395 21,100 2,226 Climbing Kansas City Center
09:22AM 38.3564 -90.1542 149° Southeast 351 404 23,200 1,984 Climbing Kansas City Center
09:23AM 38.2683 -90.0892 150° Southeast 359 413 25,200 1,854 Climbing Kansas City Center
09:24AM 38.1794 -90.0217 149° Southeast 366 421 27,000 1,610 Climbing Kansas City Center
09:25AM 38.0722 -89.9444 150° Southeast 387 445 28,500 1,548 Climbing Kansas City Center
09:26AM 37.9706 -89.8678 149° Southeast 395 455 30,200 1,500 Climbing Kansas City Center
09:27AM 37.8758 -89.7986 150° Southeast 395 455 31,600 1,355 Climbing Kansas City Center
09:28AM 37.7825 -89.7281 149° Southeast 397 457 33,000 1,415 Climbing Kansas City Center
09:29AM 37.6867 -89.6581 150° Southeast 400 460 34,500 976 Climbing Kansas City Center
09:30AM 37.5886 -89.5864 150° Southeast 408 470 35,000 242 Climbing Kansas City Center
09:31AM 37.4808 -89.5075 150° Southeast 428 493 35,000  Level Kansas City Center
09:32AM 37.3781 -89.4331 150° Southeast 427 491 35,000  Level Kansas City Center
09:33AM 37.2544 -89.3450 150° Southeast 426 490 35,000  Level Kansas City Center
09:34AM 37.1528 -89.2717 150° Southeast 422 486 35,000  Level Kansas City Center
09:35AM 37.0892 -89.2283 151° Southeast 425 489 35,000 571 Level Memphis Center
09:36AM 36.9906 -89.1597 151° Southeast 420 483 36,000 1,000 Climbing Memphis Center
09:37AM 36.9003 -89.0908 149° Southeast 407 468 37,000 500 Climbing Memphis Center
09:38AM 36.8058 -89.0250 151° Southeast 396 456 37,000  Level Memphis Center
09:39AM 36.7072 -88.9542 150° Southeast 396 456 37,000  Level Memphis Center
09:40AM 36.6083 -88.8836 150° Southeast 402 463 37,000  Level Memphis Center
09:41AM 36.5075 -88.8106 150° Southeast 412 474 37,000  Level Memphis Center
09:42AM 36.4022 -88.7403 152° Southeast 417 480 37,000  Level Memphis Center
09:43AM 36.2992 -88.6678 150° Southeast 423 487 37,000  Level Memphis Center
09:44AM 36.1961 -88.5953 150° Southeast 428 493 37,000  Level Memphis Center
09:45AM 36.0928 -88.5231 151° Southeast 428 493 37,000  Level Memphis Center
09:46AM 35.9897 -88.4508 150° Southeast 428 493 37,000  Level Memphis Center
09:47AM 35.8842 -88.3792 151° Southeast 428 493 37,000  Level Memphis Center
09:48AM 35.7808 -88.3072 151° Southeast 428 493 37,000 -150 Level Memphis Center
09:49AM 35.6753 -88.2358 151° Southeast 428 493 36,700 -700 Descending Memphis Center
09:50AM 35.5656 -88.1622 151° Southeast 428 493 35,600 -850 Descending Memphis Center
09:51AM 35.4600 -88.0936 152° Southeast 428 493 35,000 -500 Descending Memphis Center
09:52AM 35.3567 -88.0200 150° Southeast 439 505 34,600 -500 Descending Memphis Center
09:53AM 35.2508 -87.9492 151° Southeast 439 505 34,000 -450 Descending Memphis Center
09:54AM 35.1475 -87.8811 152° Southeast 433 498 33,700 -1,000 Descending Memphis Center
09:55AM 35.0269 -87.8008 151° Southeast 433 498 32,000 -1,650 Descending Memphis Center
09:56AM 34.9189 -87.7283 151° Southeast 439 505 30,400 -1,650 Descending Memphis Center
09:57AM 34.8153 -87.6683 155° Southeast 449 517 28,700 -2,150 Descending Memphis Center
09:58AM 34.6975 -87.6239 163° South 449 517 26,100 -2,350 Descending Memphis Center
09:59AM 34.5861 -87.5822 163° South 436 502 24,000 -1,450 Descending Memphis Center
10:00AM 34.4889 -87.5325 157° South 401 461 23,200 -1,100 Descending Memphis Center
10:01AM 34.3958 -87.4700 151° Southeast 380 437 21,800 -1,988 Descending Memphis Center
10:03AM 34.2444 -87.3508 147° Southeast 384 442 17,700 -2,614 Descending Atlanta Center
10:04AM 34.1789 -87.3056 150° Southeast 377 434 15,700 -3,079 Descending Atlanta Center
10:04AM 34.1217 -87.2606 147° Southeast 360 414 13,800 -2,372 Descending Atlanta Center
10:05AM 34.0686 -87.2136 144° Southeast 367 422 12,300 -2,135 Descending Atlanta Center
10:06AM 33.9928 -87.1506 145° Southeast 354 407 10,100 -1,150 Descending Atlanta Center
10:07AM 33.9192 -87.0953 148° Southeast 332 382 10,000 -50 Descending Atlanta Center
10:08AM 33.8414 -87.0325 146° Southeast 332 382 10,000  Level Atlanta Center
10:09AM 33.7656 -86.9725 147° Southeast 332 382 10,000 -1,050 Level Atlanta Center
10:10AM 33.7533 -86.8769 99° East 281 323 7,900 -1,950 Descending Atlanta Center
10:11AM 33.7575 -86.7772 87° East 266 306 6,100 -1,600 Descending Atlanta Center
10:12AM 33.7467 -86.7044 100° East 245 282 4,700 -1,600 Descending Atlanta Center
10:13AM 33.6942 -86.7203 194° South 136 157 2,900 -1,147 Descending Atlanta Center
10:14AM 33.6392 -86.7511 205° Southwest 156 180 2,100 -701 Descending Atlanta Center
10:15AM 33.5975 -86.7497 178° South 130 150 1,300 -787 Descending Atlanta Center
10:17AM 33.5639 -86.7523 140° Southeast  Level Estimated
10:24AM 33.5639 -86.7523 140° Southeast  Level Estimated